This is the latest recevied weather packets stored in our database for station/object K2CCS. If no packets are shown the sender has not sent any weather packets the latest 10 day(s).
| Time | Temp. | Humidity | Pressure | Rain* | Wind** | Luminosity | Snow |
|---|---|---|---|---|---|---|---|
| 1777757199 | 13.33° C | 40% | 1015.1 hPa | 0 mm | - | 377 W/m² | - |
| 1777756897 | 13.33° C | 40% | 1014.9 hPa | 0 mm | - | 407 W/m² | - |
| 1777756592 | 13.33° C | 39% | 1014.9 hPa | 0 mm | - | 412 W/m² | - |
| 1777756290 | 13.89° C | 40% | 1014.9 hPa | 0 mm | - | 409 W/m² | - |
| 1777755987 | 13.33° C | 40% | 1014.9 hPa | 0 mm | - | 455 W/m² | - |
| 1777755684 | 13.89° C | 39% | 1014.7 hPa | 0 mm | - | 482 W/m² | - |
| 1777755381 | 13.33° C | 39% | 1014.8 hPa | 0 mm | - | 505 W/m² | - |
| 1777755077 | 12.78° C | 41% | 1014.8 hPa | 0 mm | - | 504 W/m² | - |
| 1777754774 | 12.22° C | 42% | 1014.8 hPa | 0 mm | - | 99 W/m² | - |
| 1777754472 | 12.78° C | 41% | 1014.8 hPa | 0 mm | - | 293 W/m² | - |
| 1777754169 | 13.33° C | 41% | 1014.8 hPa | 0 mm | - | 472 W/m² | - |
| 1777753866 | 13.33° C | 43% | 1014.9 hPa | 0 mm | - | 507 W/m² | - |
| 1777753562 | 12.78° C | 42% | 1014.8 hPa | 0 mm | - | 559 W/m² | - |
| 1777753260 | 12.78° C | 44% | 1014.7 hPa | 0 mm | - | 513 W/m² | - |
| 1777752956 | 12.78° C | 43% | 1014.8 hPa | 0 mm | - | 456 W/m² | - |
| 1777752653 | 12.78° C | 44% | 1014.8 hPa | 0 mm | - | 162 W/m² | - |
| 1777752348 | 12.22° C | 45% | 1014.9 hPa | 0 mm | - | 586 W/m² | - |
| 1777752047 | 12.78° C | 44% | 1014.8 hPa | 0 mm | - | 131 W/m² | - |
| 1777751744 | 13.33° C | 44% | 1014.8 hPa | 0 mm | - | 188 W/m² | - |
| 1777751440 | 12.22° C | 46% | 1014.8 hPa | 0 mm | - | 622 W/m² | - |
| 1777751137 | 12.78° C | 47% | 1015 hPa | 0 mm | - | 148 W/m² | - |
| 1777750833 | 12.22° C | 48% | 1014.9 hPa | 0 mm | - | 218 W/m² | - |
| 1777750530 | 12.22° C | 50% | 1014.8 hPa | 0 mm | - | 173 W/m² | - |
| 1777750227 | 12.22° C | 49% | 1015.1 hPa | 0 mm | - | 187 W/m² | - |
| 1777749922 | 12.22° C | 49% | 1015.2 hPa | 0 mm | - | 162 W/m² | - |
* Rain latest hour (hover to see other rain measurements)
** Current wind speed in m/s (hover to see current wind gust speed)